SENTINEL-3A (41335 NORAD) Tracking and Keplerian Element Data

This shows tracking and keplerian element data for the satellite.

Feedback or suggestion? Click here.




ElementValue
Catalog41335
NameSENTINEL-3A
Epoch Orbit14673
Epoch Day345.82403593
Epoch Year2018
RAAN50.4792
Inclination98.6202
Eccentricity0.0001057
Argument of Perigee87.7436
Mean Anonmoly272.3866
Mean Motion14.26740047
Decay Rate-5E-08
L11 41335U 16011A 18345.82403593 -.00000005 00000-0 15914-4 0 9990
L22 41335 98.6202 50.4792 0001057 87.7436 272.3866 14.26740047146730

Live tracking and technical data element details for SENTINEL-3A (NORAD 41335). SENTINEL-3A can be tracked NOW for your location showing map with azimuth and elevation plus other details from your city location.

Track the satellite on the map from your city or location and see movement details for azimuth, elevation, latitude, longitude, range, height, and movement on the map or in text.







IsCatalogInMostPopularTable: catalog: 41335, numindb: 138
Update: records affected: 1



GetName: 41335 SENTINEL-3A

Hit Count: updated at: Thu, 13 Dec 2018 04:11:08 GMT